Погода в Ларисовке

Россия / Белгородская область     51°02′25″N   38°16′22″E
темп.,
°C
ветер,
м/с
пор.,
м/с
влажн.,
%
обл.,
%
осадки,
мм/ч
давл.,
гПа
погр.,
м
15 августа, пн
пн1500:00+21всв6134912 0.0 1015293
03:00+18в4115461 0.0 1015186
06:00+19всв4125271 0.0 1015245
09:00+26в7123880 0.0 1015587
12:00+31в892751 0.0 10141437
15:00+33в89235 0.0 10132177
18:00+32всв7102685 0.0 1012917
21:00+26всв7163699 0.0 1013394
16 августа, вт
вт1600:00+27в81733100 0.0 1013594
03:00+24в71438100 0.0 1014577
06:00+23в71331100 0.0 1014471
09:00+23в61431100 0.0 1015496
12:00+25в61330100 0.0 1015575
15:00+29вюв5929100 0.0 10141071
18:00+28св71329100 0.0 1013469
21:00+25всв71436100 0.0 1013445
17 августа, ср
ср1700:00+25всв617365 0.0 1012442
03:00+22в51247100 0.3 1011232
06:00+22в5155099 0.1 1011347
09:00+26в8154177 0.1 1011658
12:00+33вюв81223100 0.0 10102516
15:00+34в91121100 0.0 10092843
18:00+29всв9153374 0.0 1009845
21:00+23всв81847100 1.0 1010495
18 августа, чт
чт1800:00+21в8205796 0.8 1011491
03:00+18всв7166894 4.1 1010339
06:00+17всв3117268 1.3 1010253
09:00+24в584414 1.4 1010498
12:00+30в56296 0.0 10091313
15:00+32в452924 0.2 10081659
18:00+30св58356 0.1 1008525
21:00+23всв48538 0.1 1009170
19 августа, пт
пт1900:00+21св511686 0.0 1009281
03:00+22вюв8166323 0.0 1009452
06:00+18в3108923 1.3 1010287
09:00+21всв697198 3.9 1011495
12:00+27в565071 0.8 1011968
15:00+32в4639100 0.8 10101880
18:00+20ссв1273100 17.8 101233
21:00+20в3375100 19.1 101341